Miscellaneous Local Product
Issued by NWS Hastings, NE

Home | Current Version | Previous Version | Text Only | Print | Product List | Glossary Off
Versions: 1 2 3 4 5 6 7 8 9 10 11 12 13 14 15 16 17 18 19 20 21 22 23 24 25 26 27 28 29 30 31 32 33 34 35 36 37 38 39 40 41 42 43 44 45 46 47 48 49 50

000
AXUS43 KGID 280902
MISGRI

GID CWA HOURLY WEATHER ROUNDUP
NATIONAL WEATHER SERVICE HASTINGS NE
400 AM CDT SAT MAY 28 2016

NOTE: "FAIR" INDICATES FEW OR NO CLOUDS BELOW 12,000 FEET WITH NO
SIGNIFICANT WEATHER AND/OR OBSTRUCTIONS TO VISIBILITY.

...SOUTH CENTRAL NEBRASKA...

CITY           SKY/WX    TMP DP  RH WIND       PRES   REMARKS
GRAND ISLAND   PTCLDY    57  55  93 W7        29.77F
HASTINGS       CLOUDY    56  54  93 NW3       29.77S
KEARNEY        CLOUDY    55  54  94 N7        29.78F
ORD            LGT RAIN  56  54  93 S6        29.76F
YORK           CLOUDY    57  55  94 W12       29.75S
AURORA         CLOUDY    57  56  96 W9        29.76F
LEXINGTON      CLOUDY    55  53  93 NW5       29.81S
HOLDREGE       CLOUDY    56  54  94 NE6       29.77F
HEBRON         LGT RAIN  58  56  95 CALM      29.75S

...NEBRASKA PANHANDLE...

CITY           SKY/WX    TMP DP  RH WIND       PRES   REMARKS
CHADRON        CLEAR     41  39  93 SW7       29.88R
ALLIANCE       CLEAR     41  40  96 NW5       29.88S
SCOTTSBLUFF    PTCLDY    40  38  93 NE5       29.91R
SIDNEY         CLEAR     42  40  92 NW7       29.91S

...WESTERN AND NORTH CENTRAL NEBRASKA...

CITY           SKY/WX    TMP DP  RH WIND       PRES   REMARKS
VALENTINE      PTCLDY    52  49  89 W7        29.82S
AINSWORTH      MOCLDY    55  52  89 NW5       29.81S
ONEILL         RAIN      58  56  94 W6        29.78S
BROKEN BOW     LGT RAIN  56  54  93 W7        29.80S
IMPERIAL       CLEAR     50  46  86 NW9       29.86S
NORTH PLATTE   CLOUDY    54  52  93 CALM      29.84R
MCCOOK         CLOUDY    55  53  93 N5        29.82S

...EASTERN NEBRASKA...

CITY           SKY/WX    TMP DP  RH WIND       PRES   REMARKS
NORFOLK        CLOUDY    59  55  87 NE8       29.70R
SO SIOUX CITY  CLOUDY    64  61  90 E13       29.67F
TEKAMAH        MOCLDY    61  59  93 S8        29.70R
COLUMBUS       CLOUDY    57  50  77 W12       29.73R
ALBION         RAIN      57  55  92 W9        29.73S
OMAHA EPPLEY   CLOUDY    62  59  90 SE8       29.71R
OFFUTT AFB     CLOUDY    61  61  99 SE7       29.70S
MILLARD        CLOUDY    62  60  93 SE8       29.71R
LINCOLN        CLOUDY    60  57  89 W7        29.74R
NEBRASKA CITY  MOCLDY    58  58 100 S3        29.73R
BEATRICE       CLOUDY    57  56  97 CALM      29.73S
FALLS CITY     MOCLDY    59  57  93 S5        29.73R

...NORTHERN KANSAS...

CITY           SKY/WX    TMP DP  RH WIND       PRES   REMARKS
GOODLAND       CLEAR     47  45  93 W10       29.88S
HILL CITY      PTCLDY    55  52  89 NW10      29.80R
NORTON         CLOUDY    55  52  88 W6        29.79F
PHILLIPSBURG   CLOUDY    55  55 100 SW6       29.77R
SMITH CENTER   DRIZZLE   54  54 100 NE6       29.76F
BELOIT         CLOUDY    57  55  94 N7        29.76S
HAYS           CLOUDY    55  48  76 W3        29.79R
RUSSELL        CLOUDY    55  55 100 W5        29.77R
CONCORDIA      LGT RAIN  58  57  97 NW9       29.76R
SALINA         RAIN      60  58  92 N7        29.74R
TOPEKA         CLOUDY    60  58  92 E6        29.75R



USA.gov is the U.S. government's official web portal to all federal, state and local government web resources and services.